{"data":{"norad_id":57818,"epoch":"2026-05-25T01:20:05.109216Z","epoch_age_seconds":70987,"freshness":"FRESH","line1":"1 57818U 23138L   26145.05561469  .00000892  00000+0  41946-4 0  9996","line2":"2 57818  43.0010 163.2284 0001344 267.5141  92.5557 15.27579467150319","mean_motion":15.27579467,"eccentricity":0.0001344,"inclination_deg":43.001,"raan_deg":163.2284,"arg_perigee_deg":267.5141,"mean_anomaly_deg":92.5557,"bstar":4.1946e-5,"rev_number":15031,"period_min":94.266781605019,"perigee_km":482.12854840805,"apogee_km":483.97283565967,"semimajor_km":6861.1876920339,"source":"CELESTRAK","updated_at":"2026-05-25T13:38:18.410489Z"}}